User: anonymous   Login
Location: Hamburg
(53.5500°N, 10.0000°E)
Time: 17:53:12
(UTC+01:00)
Language:

Iridium 10 - Orbit

View from above orbital plane
View from above orbital plane
View from above satellite
View from above satellite

Ground track
Ground track

The orbit data is extracted from the following two-line orbital elements,

1 24839U 97030D   17056.48094126 -.00000020  00000-0 -14179-4 0  9998
2 24839  86.3951  36.7621 0002159  85.7003  64.2197 14.34214190 30949
Epoch (UTC): 25 February 2017 11:32:33
Eccentricity: 0.0002159
inclination: 86.3951°
perigee height: 776 km
apogee height: 779 km
right ascension of ascending node: 36.7621°
argument of perigee: 85.7003°
revolutions per day: 14.34214190
mean anomaly at epoch: 64.2197°
orbit number at epoch: 3094

The dashed part of the orbit path shows where the satellite is in the earth's shadow,  

DLR